User: anonymous   Login
Location: Caltech
(34.1382°N, 118.1253°W)
Time: 21:34:06
(UTC-07:00)
Language:

ITAMSAT 1 - Orbit

View from above orbital plane
View from above orbital plane
View from above satellite
View from above satellite

Ground track
Ground track

The orbit data is extracted from the following two-line orbital elements,

1 22826U 93061D   16182.49101550  .00000001  00000-0  17933-4 0  9990
2 22826  98.7545 138.9429 0007775 270.8839  89.1452 14.30284643187302
Epoch (UTC): 30 June 2016 11:47:03
Eccentricity: 0.0007775
inclination: 98.7545°
perigee height: 785 km
apogee height: 796 km
right ascension of ascending node: 138.9429°
argument of perigee: 270.8839°
revolutions per day: 14.30284643
mean anomaly at epoch: 89.1452°
orbit number at epoch: 18730

The dashed part of the orbit path shows where the satellite is in the earth's shadow,  

DLR